Regional Weather Roundup
Issued by NWS

Home | Current Version | Previous Version | Graphics & Text | Print | Product List | Glossary On
Versions: 1 2 3 4 5 6 7 8 9 10 11 12 13 14 15 16 17 18 19 20 21 22 23 24 25 26 27 28 29 30 31 32 33 34 35 36 37 38 39 40 41 42 43 44 45 46 47 48 49 50
000
ASUS43 KLOT 020506
RWRIL

ILLINOIS REGIONAL WEATHER ROUNDUP
NATIONAL WEATHER SERVICE CHICAGO/ROMEOVILLE IL
1200 AM CDT SAT AUG 02 2014

NOTE: "FAIR" INDICATES FEW OR NO CLOUDS BELOW 12,000 FEET WITH NO
SIGNIFICANT WEATHER AND/OR OBSTRUCTIONS TO VISIBILITY.

* THESE STATIONS ARE NOT UNDER NWS QUALITY CONTROL. THEY ALSO MAY NOT
  REPORT WEATHER SUCH AS PRECIPITATION OR FOG.

ILZ001-002-007-009-015-016-024-020600-
NORTHWEST ILLINOIS

CITY           SKY/WX    TMP DP  RH WIND       PRES   REMARKS
MOLINE         CLEAR     63  60  90 MISG      30.12R
STERLING*      CLOUDY    61  57  88 E3        30.11F
SAVANNA*       PTCLDY    65  56  72 S5        30.12F
$$

ILZ003-004-008-010-011-017-018-020600-
NORTH CENTRAL ILLINOIS

CITY           SKY/WX    TMP DP  RH WIND       PRES   REMARKS
ROCKFORD       CLOUDY    61  57  87 SW3       30.13F
FREEPORT*      CLOUDY    60  57  90 CALM      30.14F
ROCHELLE*      CLOUDY    61  58  90 NW3       30.10F
DE KALB*       CLOUDY    61  55  80 NW8       30.09R
PERU*          MOCLDY    65  57  73 SW7       30.11F
$$

ILZ005-006-012>014-019>023-020600-
NORTHEAST ILLINOIS

CITY           SKY/WX    TMP DP  RH WIND       PRES   REMARKS
CHICAGO-OHARE  CLOUDY    65  53  65 SE8       30.08F
CHICAGO-MIDWAY CLOUDY    71  55  56 E5        30.09F
AURORA         CLOUDY    64  57  78 SE3       30.07F
LANSING*       MOCLDY    61  60  94 CALM      30.11F
JOLIET*        CLOUDY    62  57  84 SE5       30.11F
WAUKEGAN       MOCLDY    60  55  83 CALM      30.08S
DUPAGE AIRPORT CLOUDY    64  57  78 S9        30.06F
KANKAKEE*      CLOUDY    62  60  95 CALM      30.12F FOG
WHEELING       CLOUDY    67  56  67 S5        30.09F
MORRIS*        CLOUDY    63  61  94 SE3       30.09F
ROMEOVILLE*    CLOUDY    63  56  80 SE7       30.09F
NORTHERLY ISL    N/A     70  53  54 SW3         N/A
$$

LMZ740>746-020600-
SOUTHERN LAKE MICHIGAN

STATION/POSITION SKY/WX   TEMP    WIND        PRES    VSBY  WAVE
                          AIR SEA DIR/SP/G                  HT/PER
                          (F)     (DEG/KT/KT) (MB)    (MI)  (FT/S)
SOUTHERN BUOY              66 64  310/  4/  8 1019.2R         0
WAUKEGAN HARBOR            67      CALM  /  7   N/A
HARRISON CRIB              70     240/  6/  7   N/A
BURNHAM HARBOR             70     190/  3/  5   N/A
CALUMET HARBOR             69     160/  2/  2 1018.2F
BURNS HARBOR               68     190/  6/  6   N/A
MICHIGAN CITY              67     180/  4/  5   N/A
MICHIGAN CITY 6N           69 69  230/  4/  6   N/A           0
ST. JOSEPH                 69 70  170/  6/  6   N/A           0
$$

ILZ025>027-034>036-040-047-049-050-058-095>099-020600-
WEST-CENTRAL ILLINOIS

CITY           SKY/WX    TMP DP  RH WIND       PRES   REMARKS
QUINCY         PTCLDY    64  62  93 NE10      30.12R
GALESBURG*     PTCLDY    61  59  94 CALM      30.12S
MACOMB*        PTCLDY    60  60  98 E6        30.14R
JACKSONVILLE*  MOCLDY    66  62  89 E3        30.13R
PITTSFIELD*    PTCLDY    62  60  92 CALM      30.11R FOG
$$

ILZ028>032-037-038-041>044-048-051>054-059>061-020600-
CENTRAL ILLINOIS

CITY           SKY/WX    TMP DP  RH WIND       PRES   REMARKS
PONTIAC        MOCLDY    63  61  94 CALM      30.13F FOG
DECATUR        MOCLDY    60  58  92 NE5       30.12R
PEORIA         CLOUDY    65  61  87 NE8       30.13R
LACON*         MOCLDY    64  59  85 SE6       30.10F
LINCOLN*       CLOUDY    64  61  91 CALM      30.10R
SPRINGFIELD    MOCLDY    64  62  93 CALM      30.12F
TAYLORVILLE    PTCLDY    55  55 100 CALM      30.11R FOG
$$

ILZ033-039-045-046-055>057-062-063-020600-
EAST-CENTRAL ILLINOIS

CITY           SKY/WX    TMP DP  RH WIND       PRES   REMARKS
CHAMPAIGN      CLOUDY    66  62  87 CALM      30.13S
DANVILLE*      CLOUDY    64  62  94 CALM      30.10S FOG
MATTOON          N/A    N/A N/A N/A CALM      30.11R
PARIS*         CLOUDY    64  63  94 CALM      30.13R
$$

ILZ079-100>102-020600-
SOUTHWEST ILLINOIS

CITY           SKY/WX    TMP DP  RH WIND       PRES   REMARKS
ALTON          CLEAR     61  61 100 CALM      30.10S
BELLEVILLE     PTCLDY    64  64  99 CALM      30.09R
CAHOKIA*       PTCLDY    64  62  93 CALM      30.09S
SPARTA*        CLOUDY    64  63  94 CALM      30.09S
$$

ILZ064>066-069>071-074>076-080>082-084>086-088>090-092>094-020600-
SOUTH-CENTRAL ILLINOIS

CITY           SKY/WX    TMP DP  RH WIND       PRES   REMARKS
CARBONDALE     CLOUDY    67  62  84 CALM      30.08F
CAIRO*         MOCLDY    73  66  78 CALM      30.06S
MARION         CLOUDY    68  64  88 NE3       30.09R
MT. VERNON     CLOUDY    64  61  88 NE3       30.09F
CENTRALIA*     PTCLDY    64  61  90 CALM      30.09F
SALEM*         CLOUDY    66  65  96 N3        30.11S FOG
METROPOLIS*    PTCLDY    71  62  73 CALM      30.06S
$$

ILZ067-068-072-073-078-083-087-091-020600-
SOUTHEAST ILLINOIS

CITY           SKY/WX    TMP DP  RH WIND       PRES   REMARKS
LAWRENCEVILLE  CLOUDY    68  62  81 N3        30.09S
FLORA*         CLOUDY    64  62  91 SW6       30.11R
FAIRFIELD*     LGT RAIN  68  64  88 CALM      30.11R
HARRISBURG*    CLOUDY    67  67  99 CALM      30.10R
ROBINSON*      CLOUDY    67  66  97 CALM      30.10S FOG
CARMI*         CLOUDY    68  66  94 NW3       30.08R
$$

ABBREVIATIONS USED IN REMARKS
   TC - TEMPERATURE IN CELSIUS
  WCI - WIND CHILL INDEX
   HX - HEAT INDEX
  VSB - VISIBILITY
$$



USA.gov is the U.S. government's official web portal to all federal, state and local government web resources and services.